When you browse on this site, cookies collect data to enhance your experience and personalize the content and advertising you see.
Visit our Privacy Policy to learn more. By continuing to use the site, you agree to this use of cookies and data.
  • In Hungary
  • List of Countries
  • For 7 days
  • Water Temperature
  • Weather Map
  • News
  • Weather Widgets
  • user-avatar
    Login

    Hourly Weather Naftalan

    Today, 31 May, Sunday

    Time Temperature Precipitation Wind Pressure Humidity
    00:00 +21°C° 0 mm 4 mps 762 mmHg 71%
    01:00 +21°C° 0 mm 4 mps 762 mmHg 71%
    02:00 +20°C° 0 mm 4 mps 762 mmHg 71%
    03:00 +20°C° 0 mm 4 mps 762 mmHg 70%
    04:00 +21°C° 0 mm 3 mps 762 mmHg 67%
    05:00 +21°C° 0 mm 3 mps 762 mmHg 63%
    06:00 +22°C° 0 mm 3 mps 763 mmHg 60%
    07:00 +24°C° 0 mm 2 mps 762 mmHg 55%
    08:00 +26°C° 0 mm 2 mps 762 mmHg 50%
    09:00 +27°C° 0 mm 2 mps 763 mmHg 44%
    10:00 +28°C° 0 mm 2 mps 762 mmHg 43%
    11:00 +28°C° 0 mm 3 mps 762 mmHg 43%
    12:00 +29°C° 0 mm 4 mps 762 mmHg 42%
    13:00 +28°C° 0 mm 4 mps 762 mmHg 43%
    14:00 +28°C° 0 mm 5 mps 762 mmHg 44%
    15:00 +27°C° 0 mm 5 mps 762 mmHg 46%
    16:00 +26°C° 0 mm 5 mps 762 mmHg 48%
    17:00 +25°C° 0 mm 4 mps 762 mmHg 50%
    18:00 +23°C° 0 mm 4 mps 762 mmHg 52%
    19:00 +23°C° 0 mm 4 mps 762 mmHg 55%
    20:00 +22°C° 0 mm 3 mps 762 mmHg 57%
    21:00 +21°C° 0 mm 3 mps 763 mmHg 59%
    22:00 +21°C° 0 mm 3 mps 763 mmHg 59%
    23:00 +21°C° 0 mm 4 mps 762 mmHg 59%

    Tomorrow, 1 June, Monday

    Time Temperature Precipitation Wind Pressure Humidity
    00:00 +21°C° 0 mm 4 mps 762 mmHg 60%
    01:00 +21°C° 0 mm 4 mps 762 mmHg 61%
    02:00 +20°C° 0 mm 4 mps 762 mmHg 63%
    03:00 +20°C° 0 mm 4 mps 762 mmHg 64%
    04:00 +20°C° 0 mm 4 mps 762 mmHg 63%
    05:00 +21°C° 0 mm 4 mps 762 mmHg 61%
    06:00 +21°C° 0 mm 4 mps 762 mmHg 59%
    07:00 +22°C° 0 mm 4 mps 762 mmHg 55%
    08:00 +23°C° 0 mm 4 mps 762 mmHg 50%
    09:00 +25°C° 0 mm 4 mps 762 mmHg 46%
    10:00 +26°C° 0 mm 4 mps 761 mmHg 44%
    11:00 +27°C° 0 mm 5 mps 761 mmHg 42%
    12:00 +27°C° 0 mm 5 mps 760 mmHg 40%
    13:00 +27°C° 0 mm 5 mps 760 mmHg 41%
    14:00 +27°C° 0 mm 5 mps 759 mmHg 42%
    15:00 +27°C° 0 mm 5 mps 758 mmHg 44%
    16:00 +26°C° 0 mm 5 mps 758 mmHg 48%
    17:00 +25°C° 0 mm 5 mps 758 mmHg 53%
    18:00 +23°C° 0 mm 5 mps 758 mmHg 57%
    19:00 +23°C° 0 mm 5 mps 758 mmHg 61%
    20:00 +22°C° 0 mm 5 mps 758 mmHg 66%
    21:00 +21°C° 0 mm 4 mps 758 mmHg 70%
    22:00 +21°C° 0 mm 4 mps 758 mmHg 72%
    23:00 +21°C° 0 mm 4 mps 758 mmHg 74%

    Day after tomorrow, 2 June, Tuesday

    Time Temperature Precipitation Wind Pressure Humidity
    00:00 +20°C° 0 mm 4 mps 757 mmHg 76%
    01:00 +20°C° 0 mm 4 mps 757 mmHg 77%
    02:00 +20°C° 0 mm 3 mps 757 mmHg 78%
    03:00 +20°C° 0 mm 3 mps 757 mmHg 79%
    04:00 +21°C° 0 mm 3 mps 757 mmHg 77%
    05:00 +21°C° 0 mm 4 mps 757 mmHg 74%
    06:00 +22°C° 0 mm 4 mps 757 mmHg 71%
    07:00 +23°C° 0 mm 4 mps 757 mmHg 65%
    08:00 +26°C° 0 mm 4 mps 757 mmHg 58%
    09:00 +28°C° 0 mm 4 mps 757 mmHg 52%
    10:00 +28°C° 0 mm 4 mps 757 mmHg 51%
    11:00 +29°C° 0 mm 5 mps 757 mmHg 49%
    12:00 +30°C° 0 mm 5 mps 757 mmHg 48%
    13:00 +29°C° 0 mm 5 mps 756 mmHg 50%
    14:00 +28°C° 0 mm 6 mps 755 mmHg 53%
    15:00 +28°C° 0 mm 6 mps 755 mmHg 56%
    16:00 +27°C° 0 mm 7 mps 755 mmHg 60%
    17:00 +26°C° 0 mm 8 mps 755 mmHg 64%
    18:00 +24°C° 0 mm 9 mps 755 mmHg 68%
    19:00 +24°C° 0 mm 8 mps 755 mmHg 71%
    20:00 +23°C° 0 mm 6 mps 755 mmHg 73%
    21:00 +23°C° 0 mm 5 mps 755 mmHg 75%
    22:00 +22°C° 0 mm 4 mps 755 mmHg 76%
    23:00 +22°C° 0 mm 4 mps 755 mmHg 77%

    3 June, Wednesday

    Time Temperature Precipitation Wind Pressure Humidity
    00:00 +21°C° 0 mm 4 mps 755 mmHg 78%
    01:00 +21°C° 0 mm 3 mps 754 mmHg 78%
    02:00 +21°C° 0 mm 3 mps 754 mmHg 78%
    03:00 +20°C° 0 mm 2 mps 754 mmHg 78%
    04:00 +21°C° 0 mm 2 mps 755 mmHg 76%
    05:00 +23°C° 0 mm 1 mps 755 mmHg 73%
    06:00 +23°C° 0 mm 1 mps 755 mmHg 70%
    07:00 +25°C° 0 mm 1 mps 755 mmHg 64%
    08:00 +27°C° 0 mm 2 mps 755 mmHg 57%
    09:00 +28°C° 0 mm 2 mps 755 mmHg 51%
    10:00 +30°C° 0 mm 2 mps 755 mmHg 46%
    11:00 +33°C° 0 mm 3 mps 755 mmHg 41%
    12:00 +35°C° 0 mm 3 mps 755 mmHg 35%
    13:00 +35°C° 0 mm 3 mps 754 mmHg 38%
    14:00 +34°C° 0 mm 4 mps 754 mmHg 40%
    15:00 +34°C° 0 mm 5 mps 753 mmHg 42%
    16:00 +32°C° 0 mm 6 mps 753 mmHg 48%
    17:00 +30°C° 0 mm 6 mps 754 mmHg 54%
    18:00 +28°C° 0 mm 7 mps 754 mmHg 60%
    19:00 +28°C° 0 mm 7 mps 754 mmHg 60%
    20:00 +27°C° 0 mm 6 mps 755 mmHg 59%
    21:00 +27°C° 0 mm 6 mps 755 mmHg 59%
    22:00 +27°C° 0 mm 5 mps 755 mmHg 59%
    23:00 +26°C° 0 mm 4 mps 756 mmHg 60%

    4 June, Thursday

    Time Temperature Precipitation Wind Pressure Humidity
    00:00 +26°C° 0 mm 2 mps 756 mmHg 60%
    01:00 +25°C° 0 mm 2 mps 756 mmHg 62%
    02:00 +25°C° 0 mm 2 mps 756 mmHg 63%
    03:00 +24°C° 0 mm 2 mps 756 mmHg 65%
    04:00 +25°C° 0 mm 2 mps 756 mmHg 64%
    05:00 +25°C° 0 mm 3 mps 757 mmHg 63%
    06:00 +26°C° 0 mm 3 mps 757 mmHg 62%
    07:00 +27°C° 0 mm 4 mps 758 mmHg 57%
    08:00 +28°C° 0 mm 5 mps 758 mmHg 52%
    09:00 +29°C° 0 mm 6 mps 759 mmHg 47%
    10:00 +29°C° 0 mm 7 mps 759 mmHg 49%
    11:00 +29°C° 0 mm 8 mps 760 mmHg 52%
    12:00 +28°C° 0 mm 9 mps 760 mmHg 55%
    13:00 +28°C° 0 mm 9 mps 760 mmHg 56%
    14:00 +28°C° 0 mm 8 mps 760 mmHg 57%
    15:00 +27°C° 0 mm 8 mps 760 mmHg 58%
    16:00 +26°C° 0 mm 7 mps 760 mmHg 61%
    17:00 +24°C° 0 mm 6 mps 761 mmHg 64%
    18:00 +23°C° 0 mm 5 mps 761 mmHg 68%
    19:00 +23°C° 0 mm 4 mps 761 mmHg 71%
    20:00 +22°C° 0 mm 3 mps 762 mmHg 75%
    21:00 +21°C° 0 mm 2 mps 762 mmHg 78%
    22:00 +21°C° 0 mm 2 mps 762 mmHg 79%
    23:00 +22°C° 0 mm 1 mps 762 mmHg 80%

    5 June, Friday

    Time Temperature Precipitation Wind Pressure Humidity
    00:00 +21°C° 0 mm 1 mps 762 mmHg 81%
    01:00 +21°C° 0 mm 1 mps 762 mmHg 82%
    02:00 +19°C° 0 mm 0 mps 761 mmHg 83%
    03:00 +18°C° 0 mm 0 mps 761 mmHg 84%
    04:00 +19°C° 0 mm 0 mps 762 mmHg 80%
    05:00 +22°C° 0 mm 1 mps 762 mmHg 76%
    06:00 +22°C° 0 mm 1 mps 762 mmHg 72%
    07:00 +24°C° 0 mm 1 mps 762 mmHg 64%
    08:00 +25°C° 0 mm 2 mps 763 mmHg 57%
    09:00 +27°C° 0 mm 2 mps 763 mmHg 50%
    10:00 +28°C° 0 mm 2 mps 763 mmHg 47%
    11:00 +29°C° 0 mm 2 mps 762 mmHg 45%
    12:00 +30°C° 0 mm 3 mps 762 mmHg 42%
    13:00 +30°C° 0 mm 3 mps 762 mmHg 43%
    14:00 +29°C° 0 mm 4 mps 761 mmHg 45%
    15:00 +29°C° 0 mm 5 mps 761 mmHg 46%
    16:00 +28°C° 0 mm 4 mps 761 mmHg 50%
    17:00 +27°C° 0 mm 4 mps 762 mmHg 54%
    18:00 +26°C° 0 mm 4 mps 762 mmHg 58%
    19:00 +25°C° 0 mm 3 mps 763 mmHg 61%
    20:00 +25°C° 0 mm 3 mps 764 mmHg 64%
    21:00 +24°C° 0 mm 2 mps 764 mmHg 67%
    22:00 +23°C° 0 mm 2 mps 765 mmHg 69%
    23:00 +22°C° 0 mm 3 mps 765 mmHg 71%
    Show more